Regional Weather Roundup
Issued by NWS

Home | Current Version | Previous Version | Graphics & Text | Print | Product List | Glossary Off
Versions: 1 2 3 4 5 6 7 8 9 10 11 12 13 14 15 16 17 18 19 20 21 22 23 24 25 26 27 28 29 30 31 32 33 34 35 36 37 38 39 40 41 42 43 44 45 46 47 48 49 50

000
ASUS44 KFWD 281715
RWRTX
NORTH TEXAS HOURLY WEATHER ROUNDUP
NATIONAL WEATHER SERVICE FORT WORTH TX
1100 AM CST TUE FEB 28 2017

NOTE: "FAIR" INDICATES FEW OR NO CLOUDS BELOW 12,000 FEET WITH NO
SIGNIFICANT WEATHER AND/OR OBSTRUCTIONS TO VISIBILITY.

TXZ118-119-281800-
DALLAS/FORT WORTH METROPLEX

CITY           SKY/WX    TMP DP  RH WIND       PRES   REMARKS
DFW AIRPORT    CLOUDY    76  65  68 SW18G26   29.90S HAZE
DALLAS LOVE    CLOUDY    76  64  66 SW15      29.92S HAZE
FTW MEACHAM    CLOUDY    74  63  68 S14       29.91S
DAL-EXECUTIVE  CLOUDY    75  66  73 S10G20    29.92S HAZE
FTW-ALLIANCE   CLOUDY    74  63  68 S17       29.90F
FTW-NAS-JRB    CLOUDY    75  64  68 S16       29.92S
FTW-SPINKS     CLOUDY    73  64  73 S14G22    29.93S HAZE
ARLINGTON      CLOUDY    75  64  68 S14G23    29.92S
GRAND PRAIRIE  PTSUNNY   73  63  68 S14G23    29.93S
ADDISON        CLOUDY    75  64  69 S15G31    29.93F HAZE
MESQUITE       CLOUDY    73  66  78 S8        29.93S FOG
LANCASTER      CLOUDY    73  66  79 SW12      29.94S HAZE
$$

TXZ091>094-102>105-117-120-121-131>134-281800-
NORTH CENTRAL TEXAS

CITY           SKY/WX    TMP DP  RH WIND       PRES   REMARKS
SHRMAN/DENISON PTSUNNY   72  64  77 S18G25    29.91S
GAINESVILLE    CLOUDY    70  62  76 S17G25    29.92S
BOWIE          PTSUNNY   72  64  75 S16       29.88F
BRIDGEPORT     CLOUDY    72  62  71 S13       29.91F
DECATUR        CLOUDY    71  63  75 S13       29.90F
DENTON         CLOUDY    73  64  73 SW16G26   29.91S
MCKINNEY       CLOUDY    73  66  78 S18       29.92S
BONHAM         CLOUDY    72  64  78 SW18G30   29.92F
GREENVILLE       N/A     73  64  73 S16       29.93F
ROCKWALL       CLOUDY    75  68  79 S15G23    29.93S
TERRELL        CLOUDY    74  67  78 S10       29.92F HAZE
WAXAHACHIE     CLOUDY    73  67  82 SW13G21   29.95R HAZE
CLEBURNE       PTSUNNY   73  68  83 SW12      29.94S
GRANBURY       CLOUDY    75  64  67 S13       29.93F
$$

TXZ083>090-098>101-113>116-127>130-139>142-154-155-281800-
WESTERN NORTH TEXAS

CITY           SKY/WX    TMP DP  RH WIND       PRES   REMARKS
WICHITA FALLS  CLOUDY    69  62  78 S18       29.83F
WF-KICKAPOO    CLOUDY    69  63  80 S10G17    29.86F
VERNON         PTSUNNY   68  49  50 SW16      29.83F
ABILENE        CLOUDY    70  63  78 SW18      29.90F
ABILENE-DYESS  CLOUDY    73  61  66 W21       29.88F
GRAHAM         CLOUDY    72  64  78 S14       29.87S
BRECKENRIDGE   PTSUNNY   73  62  68 SW17      29.89S HAZE
CISCO          CLOUDY    72  64  78 SW16      29.91F
RANGER         CLOUDY    70  63  78 SW13      29.92F
MINERAL WELLS  CLOUDY    72  62  71 S13       29.89F
STEPHENVILLE   CLOUDY    73  61  65 SW16G24   29.95F
COMANCHE       PTSUNNY   72  64  75 SW9G20    29.93F
BROWNWOOD      CLOUDY    73  64  73 S9        29.93F
COLEMAN        CLOUDY    71  63  74 SW10G16   29.93F
$$

TXZ143>147-156>162-174-175-281800-
CENTRAL TEXAS

CITY           SKY/WX    TMP DP  RH WIND       PRES   REMARKS
WACO           CLOUDY    75  68  78 S16       29.92S HAZE
WACO-MCGREGOR  PTSUNNY   76  68  76 S22G31    29.92S
HILLSBORO      CLOUDY    74  68  81 S20       29.93S HAZE
CORSICANA      CLOUDY    78  68  71 S21G30    29.93F
MEXIA          CLOUDY    77  66  68 S25G37    29.92F
HEARNE         CLOUDY    78  68  72 SE20G26   29.96S
CAMERON        PTSUNNY   79  67  68 S21       29.94S
TEMPLE         CLOUDY    75  69  81 S21       29.94R
KILLEEN        PTSUNNY   75  64  69 S15       29.94R
KILLEEN-SKYLRK CLOUDY    76  66  71 S14G22    29.95
FORT HOOD      CLOUDY    75  64  69 S17       29.92R
GATESVILLE     PTSUNNY   75  64  69 S17       29.96R
HAMILTON       MOSUNNY   76  63  65 SW18      29.95S
LAMPASAS       CLOUDY    73  66  79 SW10G20   29.95R
$$

TXZ095>097-106>112-122>126-135>138-148>153-164>167-281800-
EAST TEXAS

CITY           SKY/WX    TMP DP  RH WIND       PRES   REMARKS
PARIS          CLOUDY    73  64  73 SW18      29.93F
SULPHUR SPRNGS CLOUDY    76  67  74 S16G26    29.95S HAZE
MOUNT PLEASANT PTSUNNY   76  67  74 S14       29.95F
GILMER         CLOUDY    75  67  75 S10G21    29.95F
MINEOLA        CLOUDY    75  66  73 S14G23    29.94S
TYLER          CLOUDY    77  67  71 SW17      29.94F
LONGVIEW       CLOUDY    79  68  69 S15G26    29.95R HAZE
MARSHALL       CLOUDY    76  66  69 S13G21    29.98S
ATHENS         CLOUDY    73  68  83 S12G17    29.93F
PALESTINE      CLOUDY    77  69  77 S17G24    29.97S
JACKSONVILLE   CLOUDY    74  67  77 S12G22    30.00R
HENDERSON      CLOUDY    78  66  65 S10G21    29.97F
CENTER         PTSUNNY   80  69  68 S14G22    30.01F
NACOGDOCHES    CLOUDY    75  66  73 S21G26    29.98F
LUFKIN         PTSUNNY   76  66  71 S18G29    30.00F
$$

SUPPLEMENTAL OBSERVATIONS (CENTRAL)

CITY           SKY/WX    TMP DP  RH WIND       PRES   REMARKS
DENISON DAM      N/A     73  64  73 SW13        N/A
CADDO GRASSLND   N/A     72  63  73 S15G22      N/A
PAT MAYSE LAKE   N/A     70  66  88 S17         N/A
GREENVILLE       N/A     75  66  73 S13G22      N/A
CEDAR HILL       N/A     75  64  69 S8G22       N/A
ATHENS           N/A     77  66  69 S15G25      N/A
LAKE LIMESTONE   N/A     77  66  69 S17G29      N/A
MCGREGOR         N/A     75  70  83 SW13G26     N/A
TEMPLE           N/A     75  68  78 S16G25      N/A
$$

SUPPLEMENTAL OBSERVATIONS (WEST)

CITY           SKY/WX    TMP DP  RH WIND       PRES   REMARKS
MILLERS CREEK    N/A     66  59  77 SW15        N/A
POSSUM KINGDOM   N/A     72  63  73 S12         N/A
LBJ GRASSLAND    N/A     72  63  73 S10         N/A
GRANBURY         N/A     73  63  68 SW13        N/A
COMANCHE         N/A     73  63  68 SW10G21     N/A
HAMBY            N/A     72  63  73 SW15        N/A
IVIE RESERVOIR   N/A     77  63  61 SW14        N/A
COLORADO BEND    N/A     72  61  68 W12G21      N/A
$$

SUPPLEMENTAL OBSERVATIONS (EAST)

CITY           SKY/WX    TMP DP  RH WIND       PRES   REMARKS
CLARKSVILLE      N/A     73  68  83 S12         N/A
TEXARKANA        N/A     75  70  83 S3          N/A
LINDEN           N/A     75  68  78 S6          N/A
CADDO LAKE       N/A    N/A N/A N/A S7G18       N/A
GILMER           N/A     79  68  69 S12G20      N/A
HENDERSON        N/A     79  66  65 S17G25      N/A
LUFKIN           N/A     77  64  65 MISG        N/A
N SABINE NF      N/A     79  66  65 MISG        N/A
S SABINE NF      N/A     77  64  65 SE8         N/A
$$

SUPPLEMENTAL OBSERVATIONS ARE A COLLECTION OF AUTOMATED INSTRUMENTS
THAT ARE MAINTAINED BY A VARIETY OF FEDERAL AND STATE AGENCIES.
CERTAIN ELEMENTS...SUCH AS HUMIDITY VALUES AND SUSTAINED WIND
SPEEDS...MAY BE APPROXIMATED.




USA.gov is the U.S. government's official web portal to all federal, state and local government web resources and services.